sat.trackr.live / text

‹ back to catalog

STARLINK-32411

NORAD 61547 · 2024-184R

PAYLOAD ACTIVE UNKNOWN

§ Identity

Operator
Country
US
Launch date
2024-10-15
Launch site
AFWTR
Launch vehicle
Mass (kg)
RCS (m²)

Purposes: comms

External: N2YO · Heavens-Above · Gunter

§ Orbital elements

Epoch: 2026-05-25T00:36:58.457376Z

Period
94.11 min
Inclination
53.1613°
Eccentricity
0.0001146
Mean motion
15.30192142 rev/d
Perigee alt
474.5 km
Apogee alt
476.0 km
Semi-major
6,853.4 km
B*
2.8184e-5
RAAN
19.4179°
Arg perigee
96.9340°
Mean anomaly
263.1791°
Rev number
9,019

§ Raw data

STARLINK-324111 61547U 24184R   26145.02567659  .00000476  00000+0  28184-4 0  99932 61547  53.1613  19.4179 0001146  96.9340 263.1791 15.30192142 90194

JSON: /api/v1/satellites/61547 · /tle

For live sub-satellite position, see the globe view (requires WebGL).

§ Visibility from observer

Set your observer location to see the next 7 days of passes ≥ 10°. The values pass through the URL so the page stays shareable.

No JS? Fill the form by hand. The geolocation button needs JavaScript.